GFSFLT2_850_spd_054.txt.gz
Wind_Speed
25 21 21 17 15 15 15 17 17 18 18 18 18 18 17 16 15 14 13 12 12 10 8 9 8 8 8 8 8 9 11 11
28 29 18 18 17 15 16 17 17 18 18 19 19 19 17 14 13 12 11 10 9 7 7 7 5 5 8 6 5 7 10 11
21 20 19 18 17 17 17 17 18 19 19 19 19 17 15 14 12 11 10 11 10 8 6 5 4 2 6 7 7 10 11 12
28 21 19 21 19 19 19 19 20 20 19 18 17 14 12 11 12 12 12 10 7 5 2 1 3 5 8 10 14 13 13 13
27 23 19 18 20 20 20 21 22 20 17 15 14 12 10 10 11 10 9 7 5 5 3 4 5 7 9 11 12 13 12 15
19 21 19 19 20 20 21 22 20 18 16 13 11 11 10 10 10 7 9 7 5 5 5 6 6 9 12 11 12 13 11 11
20 20 21 22 22 21 21 20 18 17 14 12 10 7 7 7 6 6 6 6 6 7 8 11 12 13 13 13 13 14 14 14
24 21 23 23 23 21 20 18 16 15 13 12 11 11 10 8 7 8 9 9 10 11 12 13 13 14 13 11 11 12 13 14
25 27 25 25 22 19 17 16 15 15 14 12 11 10 9 10 9 9 9 10 11 12 12 11 13 11 12 12 12 13 15 17
30 29 27 22 20 20 21 20 17 15 12 10 8 9 9 9 8 8 9 9 10 10 12 13 13 15 16 15 14 13 12 13
35 32 31 26 26 24 20 18 16 12 11 9 8 9 9 8 7 7 7 7 8 11 13 15 18 18 17 16 18 19 5 8
34 35 31 28 25 22 21 22 17 12 10 7 8 10 10 8 7 6 6 7 10 12 14 15 17 19 20 22 23 6 2 7
30 30 29 26 26 24 24 22 17 14 12 11 13 11 9 7 5 5 8 9 10 12 14 16 19 22 24 27 16 2 21 10
26 26 24 25 25 24 22 19 16 13 13 15 13 10 7 5 6 9 10 10 12 15 16 18 20 22 23 24 12 22 4 27
25 25 24 25 25 24 21 18 15 18 18 16 13 11 8 6 7 10 13 15 16 16 18 20 22 24 23 20 12 8 31 16
26 25 23 22 26 25 22 22 24 21 16 14 13 12 9 8 11 11 14 17 19 20 20 21 24 25 25 23 21 21 24 23
30 27 24 21 26 25 18 18 17 15 17 17 15 11 8 7 10 13 15 17 16 17 19 23 27 26 23 23 23 22 24 27
30 25 21 22 28 23 19 17 18 20 22 21 17 14 11 13 13 15 15 16 16 19 23 26 27 25 25 23 22 21 23 25
27 22 22 26 24 23 21 18 19 20 22 23 21 20 19 17 15 11 14 17 19 23 24 25 24 25 25 22 22 23 23 25
23 23 27 24 25 23 23 24 22 21 20 22 22 18 12 8 6 16 18 24 27 25 24 23 25 25 24 24 24 23 24 23

GFSFLT2_850_spd_057.txt.gz
Wind_Speed
30 25 21 21 16 11 11 15 17 18 19 20 21 22 21 21 20 18 16 13 12 10 10 9 10 10 9 8 7 9 11 13
28 25 23 27 14 13 14 16 17 18 19 20 21 21 20 18 17 16 13 10 9 8 8 7 5 4 5 6 6 7 10 11
27 35 26 17 15 15 16 17 18 19 20 21 20 19 18 16 15 13 11 9 7 6 5 5 3 5 7 9 11 12 12 12
26 30 21 18 19 18 19 21 20 20 22 21 19 19 16 14 14 12 10 7 2 2 1 2 4 6 8 11 14 13 13 13
25 30 21 21 20 19 19 20 21 22 21 20 17 16 14 13 12 10 8 4 2 3 2 3 5 7 9 12 12 12 11 11
36 22 17 17 18 19 20 22 22 21 19 18 15 14 10 9 10 7 6 6 7 6 3 5 6 9 11 12 12 13 13 12
27 19 20 19 19 21 23 24 22 20 18 16 12 11 8 7 7 8 8 9 9 6 5 7 9 10 11 12 14 13 14 14
23 20 22 21 23 22 24 22 20 16 14 11 9 7 7 6 10 7 9 11 8 7 8 9 10 10 11 12 10 11 13 15
24 23 23 23 24 23 23 21 19 15 13 9 9 8 8 10 10 9 11 10 8 8 9 9 10 10 11 11 10 11 14 16
24 23 24 24 24 23 21 21 16 15 12 12 12 11 13 13 11 10 10 9 8 9 9 11 12 13 13 12 12 13 12 10
27 26 24 24 23 22 23 21 17 16 15 13 12 13 13 11 12 10 8 8 8 9 12 13 14 15 16 17 17 9 5 4
26 26 26 27 24 25 23 22 21 18 15 13 12 13 13 12 10 8 6 5 8 11 12 12 13 16 18 20 18 3 1 12
32 30 29 28 27 28 26 25 23 19 14 14 14 14 13 11 9 5 5 8 10 11 11 11 15 20 23 25 13 3 20 8
33 32 31 31 31 29 28 24 21 16 15 13 13 14 12 10 7 7 8 9 10 11 12 14 17 21 23 21 10 18 4 9
32 33 34 35 31 29 26 24 20 19 19 17 16 15 13 11 9 9 9 9 11 13 16 17 18 20 22 20 9 6 23 10
32 33 35 34 30 29 29 28 25 25 21 18 17 16 13 11 10 10 9 11 13 14 15 16 19 22 23 18 17 17 14 15
36 35 34 31 28 29 30 28 24 19 19 19 18 15 14 13 12 11 10 10 10 14 15 17 21 23 21 21 21 20 19 20
39 32 31 30 29 27 30 25 19 19 20 21 18 16 16 17 15 13 9 8 11 14 19 22 24 23 23 23 22 20 20 21
40 35 32 29 27 27 27 21 17 18 18 20 21 22 23 22 19 14 11 10 16 22 23 26 24 23 24 23 22 21 20 22
38 29 32 28 28 26 24 22 19 19 21 22 26 27 27 23 17 16 13 18 18 18 22 22 23 22 21 20 21 21 22 25

GFSFLT2_850_spd_060.txt.gz
Wind_Speed
31 31 31 25 29 15 15 15 16 18 20 22 25 26 27 25 22 20 18 17 14 12 12 11 10 9 8 8 8 9 12 13
26 27 32 33 22 14 11 8 16 19 21 24 25 25 24 21 18 16 14 14 13 10 7 6 6 6 8 8 9 11 11 12
29 31 34 34 30 15 14 16 18 20 22 23 23 23 21 18 16 14 12 10 9 8 7 5 5 6 9 9 12 13 11 12
31 37 38 33 21 14 16 19 21 22 23 23 21 20 18 16 14 11 9 7 5 4 3 3 5 8 11 12 15 14 13 12
34 31 33 21 18 19 20 22 23 23 22 22 20 18 16 14 12 10 7 4 3 1 2 3 5 8 11 14 15 15 14 13
32 38 30 20 17 19 20 21 23 24 23 21 18 15 14 12 11 10 5 4 3 3 3 4 7 10 12 13 13 13 12 13
36 26 19 18 17 18 21 23 23 22 21 19 16 13 10 10 10 9 6 6 6 6 4 8 11 10 11 11 10 12 13 14
30 21 18 18 20 21 22 24 23 20 17 15 13 11 9 9 10 9 6 8 8 6 6 7 8 9 10 10 11 12 13 13
25 18 17 16 19 20 22 23 21 18 16 13 11 11 11 9 9 8 9 10 9 7 7 7 8 9 9 8 10 12 12 12
21 19 19 19 21 22 24 21 19 16 15 12 10 9 9 9 11 10 10 9 9 8 7 8 8 7 8 11 14 12 8 7
23 21 20 22 22 22 21 20 19 17 14 12 10 11 13 12 12 11 11 10 7 6 7 8 7 9 12 14 13 6 4 7
23 22 21 21 23 22 22 21 21 17 15 12 13 14 13 13 14 12 10 8 6 7 7 7 7 10 14 18 15 7 7 14
26 24 24 25 25 25 25 24 22 19 17 15 14 13 15 15 13 11 9 7 5 5 5 6 10 15 19 18 11 6 13 11
26 25 25 27 26 26 24 22 22 19 18 17 16 16 16 14 12 10 8 6 4 4 5 9 13 16 19 18 10 12 5 12
28 27 26 28 27 27 25 25 24 23 22 21 19 18 16 14 13 10 8 7 6 5 8 11 14 16 19 18 9 6 21 12
30 31 31 32 32 31 30 30 30 28 24 19 19 20 18 16 14 10 10 10 7 7 12 13 16 19 21 17 16 16 11 10
32 33 33 35 34 33 33 33 29 22 18 20 21 21 19 16 15 14 14 12 7 7 10 15 20 22 19 17 16 16 15 17
35 37 36 36 35 37 36 35 26 24 22 22 24 23 20 18 18 17 16 12 11 8 16 20 20 19 19 18 17 16 16 17
36 36 39 38 36 39 39 30 27 25 21 22 24 23 23 23 24 25 24 18 17 10 12 16 19 20 20 19 18 17 17 18
39 38 34 38 40 38 31 27 23 19 19 20 23 24 25 26 26 24 18 21 19 15 20 16 19 19 19 18 17 17 20 22

GFSFLT2_850_spd_063.txt.gz
Wind_Speed
31 30 31 34 35 23 24 24 26 24 26 28 30 29 26 24 22 21 18 17 17 15 15 13 11 9 8 8 10 13 12 12
28 35 28 31 36 25 24 22 25 24 26 28 29 28 26 23 19 16 15 14 12 12 11 9 7 7 8 8 11 13 12 13
29 32 30 30 21 30 24 19 18 23 26 28 28 27 24 21 18 16 13 11 11 9 8 6 4 6 7 9 12 12 12 12
30 37 35 38 35 30 19 20 23 24 26 28 27 24 21 18 16 13 12 11 9 6 5 3 3 6 9 11 14 13 13 10
41 38 35 30 26 18 21 22 22 24 26 26 25 22 20 16 13 13 12 9 5 4 3 0 6 9 11 13 13 12 11 10
33 30 34 33 24 19 18 20 23 25 25 24 22 21 17 15 14 12 9 6 6 4 2 5 10 12 12 12 13 12 11 10
32 38 33 23 22 20 21 22 23 26 25 23 20 18 15 14 12 12 8 8 6 4 3 8 10 13 11 10 11 10 11 11
40 36 29 19 17 17 19 21 23 24 23 21 18 15 13 13 13 12 10 7 8 6 7 9 10 9 9 9 10 11 11 10
31 23 18 18 16 18 20 22 24 23 21 19 17 15 15 14 11 10 11 10 8 7 8 8 8 7 7 9 11 11 9 7
24 17 16 17 17 18 20 22 23 21 20 18 16 16 13 12 11 11 9 10 8 9 7 6 5 5 7 9 11 9 6 7
23 19 15 16 16 18 20 23 23 21 18 18 15 14 13 10 9 11 11 12 8 7 5 5 5 6 9 11 10 6 4 5
23 18 16 16 17 20 22 24 23 21 20 17 16 12 10 10 12 13 12 10 8 7 6 5 5 7 8 12 10 6 5 7
26 23 20 21 23 25 26 26 24 22 20 19 13 12 12 14 15 13 12 12 9 8 6 6 6 7 10 13 8 7 8 9
27 25 23 23 23 24 25 23 24 21 21 19 15 16 16 16 15 14 15 12 10 9 8 7 6 8 10 11 3 7 8 13
29 26 26 26 26 26 26 25 25 25 25 18 19 18 17 16 16 16 15 12 12 12 9 6 6 9 12 10 5 4 13 8
32 29 28 28 28 29 28 29 29 28 23 18 19 18 19 20 20 19 17 16 15 13 10 7 8 11 15 14 13 13 7 11
30 28 27 28 28 28 29 30 30 27 23 21 22 21 23 24 22 21 20 20 18 15 13 10 11 13 13 15 15 15 15 15
30 28 28 27 27 28 30 32 32 30 25 25 25 26 27 27 25 24 24 23 21 19 17 17 14 15 18 17 15 13 11 12
33 33 32 32 32 29 31 34 34 33 27 28 27 29 30 29 28 28 27 24 24 20 19 24 20 26 15 16 17 16 14 15
32 35 35 31 24 29 31 35 35 36 29 28 27 29 28 30 30 28 27 25 22 18 22 19 19 14 14 16 16 14 16 17

GFSFLT2_850_spd_069.txt.gz
Wind_Speed
27 29 28 32 30 29 30 29 29 29 29 29 30 29 27 25 23 21 19 18 17 15 12 11 9 10 12 13 16 15 11 9
34 29 27 32 27 27 27 30 30 29 28 30 29 28 26 24 21 20 18 17 15 13 10 8 8 10 11 13 15 14 7 7
34 33 40 35 36 24 25 24 25 26 28 29 29 27 24 23 21 18 16 15 14 12 9 7 7 8 9 11 13 5 5 5
32 29 39 42 39 35 25 26 25 27 28 28 24 24 18 22 19 16 14 14 12 10 8 8 10 9 9 9 4 6 5 5
31 27 32 35 40 40 34 32 30 28 29 22 22 20 19 20 18 16 15 13 12 11 8 7 5 2 1 2 5 5 3 3
31 34 36 39 41 38 34 32 31 27 26 18 21 18 16 18 17 16 16 11 11 8 7 4 1 3 4 6 5 3 2 3
31 34 41 42 40 43 42 31 27 23 25 20 17 16 14 14 13 13 12 11 11 9 7 3 3 3 3 2 6 7 5 2
33 37 34 36 36 34 33 34 29 26 27 24 18 17 17 13 14 13 14 12 10 9 7 3 4 1 3 5 4 2 2 5
30 29 27 32 34 38 30 19 18 19 18 20 20 14 15 13 14 14 13 12 12 11 9 7 4 3 3 2 3 4 1 2
29 34 36 26 23 22 16 19 19 19 18 16 16 18 17 16 17 18 16 14 12 12 8 7 6 4 3 1 1 2 2 1
37 32 21 18 19 17 18 19 18 17 18 20 20 20 19 17 17 14 17 13 14 12 9 8 7 6 5 3 3 4 4 4
22 19 18 18 17 18 17 16 16 15 16 16 19 19 20 17 15 16 16 15 13 12 11 9 8 7 6 6 6 6 7 6
21 18 17 16 15 16 16 17 18 17 19 20 20 20 20 19 15 18 17 14 14 16 14 13 8 8 6 6 9 10 9 8
21 19 17 15 15 16 16 17 18 18 20 20 18 20 21 21 18 19 18 15 16 17 15 11 9 9 5 6 7 5 10 11
23 20 18 18 16 16 16 17 16 18 19 19 23 22 20 21 22 20 19 17 17 18 17 14 11 9 9 4 3 6 10 11
25 23 21 20 21 19 19 18 19 18 20 20 21 21 23 22 23 22 22 21 19 19 17 15 14 14 7 12 11 11 8 10
26 25 24 23 23 22 20 20 19 16 19 18 20 23 22 25 23 22 25 25 23 21 18 16 19 11 12 12 14 10 12 13
27 28 27 25 24 25 24 22 21 19 21 20 20 22 23 26 26 30 28 26 22 20 19 20 20 14 13 13 12 11 12 15
28 28 29 28 27 26 27 26 23 24 24 24 26 28 26 28 29 32 30 27 21 19 23 25 18 17 18 16 11 12 13 14
29 29 29 29 29 29 27 26 24 24 25 25 26 25 26 27 28 33 31 23 23 22 27 19 18 18 23 18 10 14 13 14